CAPE
0 0 0 0 0 0 0 0 10 0 1 4 1 1 0 0 0 0 0 0 0 0 0 0 0 0 0 0 0 0 0 0 0 0 0 0 0 0 0 0 0 0 0
0 0 0 0 0 0 0 0 24 0 0 4 4 0 0 0 0 0 0 0 0 0 0 0 0 0 0 0 0 0 0 0 0 0 0 0 1 0 0 0 0 0 0
0 0 0 0 0 0 0 0 22 12 0 3 0 0 0 0 0 0 0 0 0 0 0 0 0 0 0 0 0 0 0 0 0 0 0 0 5 0 0 0 0 0 0
0 0 0 0 0 0 0 0 1 19 8 2 0 0 0 0 0 0 0 0 0 0 0 0 0 0 0 0 0 0 0 0 0 0 0 0 0 0 0 0 0 0 0
0 0 0 0 0 0 0 0 0 2 15 0 0 2 0 0 0 0 0 0 0 0 0 0 0 0 0 0 0 0 0 0 0 0 0 0 0 0 0 0 0 0 0
0 0 0 0 0 0 0 0 0 5 3 0 0 0 0 0 0 0 0 0 0 0 0 0 0 0 0 0 0 0 0 0 0 0 0 0 0 0 0 0 0 0 0
0 0 0 0 0 0 0 0 0 0 2 3 0 0 0 0 0 0 0 0 0 0 0 0 0 0 0 0 0 0 0 0 0 0 0 0 0 0 0 0 0 0 0
0 1 0 0 1 0 1 2 1 1 0 2 0 0 0 0 0 0 0 0 0 0 0 0 0 0 0 0 0 0 0 0 0 0 0 0 0 0 0 0 0 0 0
2 1 0 1 1 1 1 3 2 1 0 0 0 0 0 0 0 0 0 0 0 0 0 0 0 0 0 0 0 0 0 0 0 0 0 0 0 0 0 0 0 0 0
1 2 3 2 1 1 1 2 2 1 1 0 0 0 0 0 0 0 0 0 0 0 0 0 0 0 0 0 0 0 0 0 0 0 0 0 0 0 0 0 0 0 0
3 3 3 3 2 1 2 2 2 2 2 1 0 1 0 0 0 0 0 4 0 0 0 0 0 0 0 0 0 0 0 0 0 0 0 0 0 0 0 0 0 0 0
5 4 4 3 3 3 2 2 2 3 2 2 1 1 0 0 0 0 0 0 0 0 0 0 0 0 0 0 0 0 0 0 0 0 0 0 0 0 0 0 0 0 0
3 3 3 3 4 4 3 3 3 3 3 2 2 2 1 0 0 0 0 0 0 0 0 0 0 0 0 0 0 0 0 0 0 0 0 0 0 0 0 0 0 0 0
5 1 2 2 2 3 4 4 3 3 3 3 2 2 2 2 0 0 0 0 0 0 0 0 0 0 0 0 0 0 0 0 0 0 0 0 0 0 0 0 0 0 0
4 4 4 1 2 1 2 2 3 4 4 3 2 2 2 1 1 0 0 0 0 0 0 0 0 0 0 0 0 0 0 0 0 0 0 0 0 0 0 0 0 0 0
4 4 2 3 3 2 1 2 2 4 5 3 3 2 3 1 2 0 0 0 0 0 0 0 0 0 0 0 0 0 0 0 0 0 0 0 0 0 0 0 0 0 0
2 2 1 2 2 0 1 1 1 1 3 3 4 2 1 2 2 1 0 0 0 0 0 0 0 0 0 0 0 0 0 0 0 0 0 0 0 0 0 0 0 0 0
0 0 0 0 0 0 0 1 1 0 1 1 2 3 3 2 1 2 1 1 1 0 0 0 0 0 0 0 0 0 0 0 0 0 0 0 0 0 0 0 0 0 0
0 0 0 0 0 0 0 0 0 0 0 0 1 1 2 3 1 1 1 1 1 0 1 0 0 0 0 0 0 0 0 0 0 0 0 0 0 0 0 0 0 0 0
0 0 0 0 0 0 0 0 0 0 0 0 1 2 4 2 2 1 1 1 0 1 0 0 0 2 0 0 0 0 0 0 0 0 0 0 0 0 0 0 0 0 0
1 1 0 0 0 0 0 0 0 0 0 0 1 1 2 3 2 1 1 1 1 0 0 1 0 0 1 0 0 0 0 0 0 0 0 0 0 0 0 0 0 0 0
1 1 0 0 0 0 0 0 0 0 0 0 0 1 1 3 3 1 0 0 0 0 0 0 0 0 0 4 4 3 1 0 0 0 0 0 0 0 0 0 0 1 0
0 0 0 0 0 0 1 0 0 0 0 0 0 0 0 1 1 0 1 0 0 1 0 0 0 1 0 0 2 3 3 0 0 0 0 0 0 0 0 0 0 0 0
0 0 0 0 0 0 1 0 0 0 0 0 0 1 1 1 0 1 1 0 2 1 2 2 1 1 1 0 0 0 0 0 0 0 0 0 0 0 0 0 0 0 0
0 0 0 0 0 0 0 0 0 0 0 0 0 1 0 0 0 0 0 0 1 8 6 5 3 3 1 3 3 2 1 0 0 0 0 0 0 0 0 0 0 0 0
0 0 0 0 0 0 0 0 0 0 0 0 1 1 0 0 0 0 0 1 2 2 3 4 2 1 5 9 7 5 2 3 1 0 0 0 0 0 0 0 0 0 0
CIN
0 0 0 0 0 0 0 0 -53 0 -1 -126 0 0 0 0 0 0 0 0 0 0 0 0 0 0 0 0 0 0 0 0 0 0 0 0 0 0 0 0 -1 0 0
0 0 0 0 0 0 0 0 -54 0 0 -64 -99 0 0 0 0 0 0 0 0 0 0 0 0 0 0 0 0 0 0 0 0 0 0 0 -7 0 0 0 0 0 0
0 0 0 0 0 0 0 0 -58 -47 0 -42 0 0 0 0 0 0 0 0 0 0 0 0 0 0 0 0 0 0 0 0 0 0 0 0 -6 0 0 0 0 0 0
0 0 0 0 0 0 0 0 -1 -39 -58 -16 0 0 0 0 0 0 0 0 0 0 0 0 0 0 0 0 0 0 0 0 0 0 0 0 0 0 0 0 0 0 0
0 0 0 0 0 0 0 0 0 -1 -34 -1 0 -121 -14 0 0 0 0 0 0 0 0 0 0 0 0 0 0 0 0 0 0 0 0 0 0 0 0 0 0 0 0
0 0 0 0 0 0 0 0 0 -7 -4 0 0 0 0 0 0 0 0 0 0 0 0 0 0 0 0 0 0 0 0 0 0 0 0 0 0 0 0 0 0 0 0
0 0 0 0 0 0 0 0 0 0 -5 -11 0 0 0 0 0 0 0 0 0 0 0 0 0 0 0 0 0 0 0 0 0 0 0 0 0 0 0 0 0 0 0
0 0 0 0 0 0 0 0 0 0 0 -1 0 0 0 0 0 0 0 0 0 0 0 0 0 0 0 0 0 0 0 0 0 0 0 0 0 0 0 0 0 0 0
0 0 0 0 0 0 0 0 0 0 0 0 -3 0 0 0 0 0 0 0 0 0 0 0 0 0 0 0 0 0 0 0 0 0 0 0 0 0 0 0 0 0 0
0 0 0 0 0 0 0 0 0 0 0 0 0 -3 0 0 0 0 0 0 0 0 0 0 0 0 0 0 0 0 0 0 0 0 0 0 0 0 0 0 0 0 0
0 0 0 0 0 0 0 0 0 0 0 0 0 0 -2 -1 0 0 0 -67 0 0 0 0 0 0 0 0 0 0 0 0 0 0 0 0 0 0 0 0 0 0 0
0 0 0 0 0 0 0 0 0 0 0 0 0 0 0 0 0 0 -1 -3 0 0 0 0 0 0 0 0 0 0 0 0 0 0 0 0 0 0 0 0 0 0 0
0 0 0 0 0 0 0 0 0 0 0 0 0 0 0 0 0 0 0 0 0 0 0 0 0 0 0 0 0 0 0 0 0 0 0 0 0 0 0 0 0 0 0
0 0 0 0 0 0 0 0 0 0 0 0 0 0 0 0 0 0 0 0 0 0 0 0 0 0 0 0 0 0 0 0 0 0 0 0 0 0 0 0 0 0 0
0 0 0 0 0 0 0 0 0 0 0 0 0 0 0 0 0 0 0 0 0 0 0 0 0 0 0 0 0 0 0 0 0 0 0 0 0 0 0 0 0 0 0
0 0 0 0 0 0 0 0 0 0 0 0 0 0 0 0 0 0 0 0 0 0 0 0 0 0 0 0 0 0 0 0 0 0 0 0 0 0 0 0 0 0 0
0 0 0 0 0 0 0 0 0 0 0 0 0 0 0 0 0 0 0 0 0 0 0 0 0 0 0 0 0 0 0 0 0 0 0 0 0 0 0 0 0 0 0
0 0 0 0 0 0 0 0 0 0 0 0 0 0 0 0 0 0 0 0 0 0 0 0 0 0 0 0 0 0 0 0 0 0 0 0 0 0 0 0 0 0 0
0 0 0 -1 0 0 0 0 0 0 0 0 0 0 0 0 0 0 0 0 0 0 0 0 0 0 0 0 0 0 0 0 0 0 0 0 0 0 0 0 0 0 0
0 0 0 0 0 0 0 0 0 0 0 0 0 0 0 0 0 0 0 0 0 0 0 0 0 0 0 0 0 0 0 0 0 0 0 0 0 0 0 0 0 0 0
0 0 0 0 0 0 0 0 0 0 0 0 0 0 0 0 0 0 0 0 0 0 0 0 0 0 0 0 0 0 0 0 0 0 0 0 0 0 0 0 0 0 0
0 0 0 0 0 0 0 0 0 0 0 0 0 0 0 0 0 0 0 0 0 0 0 0 0 0 0 0 0 0 0 0 0 0 0 0 0 0 0 0 0 0 0
0 0 0 0 0 0 0 0 0 0 0 0 0 0 0 0 0 0 0 0 0 0 0 0 0 0 0 0 0 0 0 0 0 0 0 0 0 0 0 0 0 0 0
0 0 0 0 0 0 0 0 0 0 0 0 0 0 0 0 0 0 0 0 0 0 0 0 0 0 0 0 0 0 0 0 0 0 0 0 0 0 0 0 0 0 0
0 0 0 0 0 0 0 0 0 0 0 0 0 -1 0 0 0 0 0 0 0 0 0 0 0 0 0 0 0 0 0 0 0 0 0 0 0 0 0 0 0 0 0
0 0 0 0 0 0 0 0 0 0 0 0 0 0 0 0 0 0 0 0 0 0 0 0 0 0 0 0 0 0 0 0 0 0 0 0 0 0 0 0 0 0 0
Wind_Speed
5 6 6 7 6 6 8 11 12 14 9 8 9 7 8 7 6 6 10 10 8 9 7 5 7 6 7 6 6 4 5 3 2 5 3 3 3 3 2 1 1 3 1
7 8 8 8 2 6 11 12 14 14 12 9 8 5 8 6 7 7 9 10 9 10 10 9 7 8 6 7 6 6 4 3 1 3 3 1 0 1 2 1 1 2 2
7 9 9 9 8 8 5 8 15 15 13 12 7 4 5 3 4 5 5 8 11 11 11 10 9 8 8 8 8 7 7 5 2 1 4 3 3 1 1 1 1 2 1
6 8 10 11 11 8 7 7 11 13 14 15 13 14 11 7 5 8 8 8 11 11 10 11 11 10 7 8 8 7 4 5 6 1 1 3 4 4 1 1 1 2 3
11 12 12 11 12 12 10 9 8 11 10 12 14 11 11 8 5 7 10 10 9 11 11 11 11 10 8 8 10 9 6 6 7 4 3 2 3 3 3 2 2 1 2
12 13 12 13 13 12 12 11 11 9 10 11 12 14 12 9 8 7 8 7 8 7 11 11 11 10 9 10 10 11 13 10 6 5 5 5 5 4 3 2 2 3 2
13 14 15 14 14 15 14 12 12 8 4 11 14 14 13 13 13 11 9 9 7 6 9 11 11 10 12 11 10 10 11 10 9 10 7 4 4 4 4 3 2 2 2
13 14 15 13 14 15 14 14 13 11 9 5 10 9 8 8 8 10 8 8 9 10 11 13 12 13 13 11 11 8 9 10 8 8 8 5 5 4 4 5 5 1 2
14 15 15 14 13 13 14 13 13 12 11 10 3 7 6 6 7 9 8 8 7 7 10 12 13 12 12 13 13 10 12 12 12 10 9 7 5 4 4 4 4 5 4
15 15 14 14 13 13 12 13 13 13 12 11 9 5 8 8 6 5 7 8 7 7 8 9 11 11 12 12 12 10 10 11 10 9 11 9 4 7 4 4 4 3 5
14 14 13 13 13 13 13 13 14 14 13 12 11 6 5 7 8 8 8 8 7 9 9 10 10 10 11 12 12 12 12 14 12 10 11 13 9 7 6 4 3 4 4
13 13 13 14 15 15 15 14 15 14 14 13 12 11 2 4 5 5 4 5 6 7 10 10 10 12 12 12 14 14 12 14 14 14 12 13 7 9 7 7 8 5 5
15 14 15 15 15 15 15 15 14 14 14 13 12 11 11 7 5 2 4 4 4 5 5 9 11 12 12 11 13 13 12 12 14 12 13 12 10 10 6 7 8 8 5
15 15 15 14 14 15 15 15 14 14 14 13 12 11 12 9 7 5 3 4 4 4 5 5 5 5 5 7 7 7 8 8 10 9 10 8 11 11 10 9 10 6 7
18 17 15 14 14 15 15 15 15 15 14 13 13 14 12 11 7 6 5 4 4 4 5 5 6 6 7 7 9 9 10 10 8 8 8 8 9 11 10 8 8 8 6
17 17 17 16 15 15 14 14 14 15 14 14 14 14 13 12 10 8 7 4 2 4 4 4 6 7 6 10 12 10 8 8 9 9 8 8 11 12 14 16 15 13 10
15 16 15 14 14 14 13 13 13 13 14 13 14 15 14 11 11 9 9 8 5 2 3 4 5 6 6 10 12 12 6 7 7 8 7 5 5 7 6 10 11 13 14
14 14 13 13 14 14 14 12 12 13 13 14 14 14 14 13 11 9 10 9 6 5 3 4 2 3 2 10 11 12 6 6 6 7 7 7 6 6 6 5 6 7 7
11 11 12 11 12 15 14 12 13 13 14 15 14 14 13 13 11 11 11 9 7 6 8 7 8 7 7 4 8 8 6 5 6 5 6 5 5 9 12 6 5 5 6
11 11 12 11 13 15 13 13 13 13 15 15 14 13 13 11 13 11 10 9 7 8 7 10 10 11 10 14 9 6 3 4 3 3 4 8 7 11 12 7 7 7 5
12 12 11 11 12 13 13 13 13 14 13 12 12 13 13 12 11 10 10 9 9 8 9 9 8 9 12 10 11 7 4 3 3 3 2 2 3 3 6 7 4 4 5
14 14 11 11 12 13 12 12 13 13 12 11 12 13 13 11 10 12 11 10 9 9 9 8 8 7 9 18 18 15 13 7 3 1 2 3 3 4 3 4 5 9 7
12 11 11 11 11 12 11 12 13 13 12 11 12 12 11 11 12 11 11 9 9 8 7 6 6 7 7 8 17 17 14 12 3 2 3 5 4 4 6 6 6 9 3
12 11 11 12 12 13 13 11 12 12 11 10 11 10 11 13 11 8 8 8 8 7 7 7 6 5 5 6 7 7 5 7 5 6 4 3 4 5 6 5 6 3 3
11 11 11 11 12 12 12 12 12 11 10 10 9 9 8 10 10 9 8 7 7 9 6 6 5 6 6 6 11 9 6 4 2 3 2 2 2 3 3 3 3 3 3
10 10 10 10 12 12 11 11 12 10 9 8 8 8 7 7 7 7 8 14 15 15 16 15 10 5 12 15 13 12 12 9 2 2 1 1 2 2 3 3 2 1 4
Wind_Direction
356 25 341 251 216 180 171 180 180 188 172 159 155 158 172 171 164 168 164 166 158 158 160 159 147 150 153 157 142 103 116 71 118 98 50 41 37 42 350 347 170 158 105
15 5 7 11 346 186 185 182 192 188 186 175 174 166 172 188 187 167 163 167 160 169 170 173 167 164 144 143 152 143 122 100 145 122 82 134 343 62 30 359 261 177 173
28 12 13 17 22 29 349 200 197 194 191 179 157 111 129 111 140 161 160 172 173 177 179 175 169 170 166 170 168 158 151 139 183 192 142 142 212 124 67 183 284 183 200
21 24 19 15 21 7 354 337 221 205 196 185 176 166 178 168 187 180 175 176 179 179 179 179 174 177 176 171 171 172 162 141 158 137 60 50 133 168 246 274 235 204 180
32 27 18 12 15 8 359 338 289 200 189 182 183 174 179 187 154 173 172 178 178 180 179 185 178 175 183 179 171 170 168 182 164 152 152 97 59 69 119 191 216 291 201
27 31 23 21 15 9 3 351 349 218 187 188 188 183 180 161 158 166 180 177 175 177 186 186 183 178 180 182 182 182 186 188 185 170 162 159 161 175 141 132 249 200 227
25 24 20 17 12 9 1 354 353 347 232 195 197 187 183 172 175 176 181 172 176 184 188 182 184 187 189 188 183 185 189 192 191 182 189 166 168 144 136 128 160 186 197
22 24 19 14 10 6 1 357 355 349 344 256 198 202 192 179 181 177 172 180 184 189 185 193 193 193 185 183 180 187 191 196 197 188 197 186 180 164 157 158 141 162 247
19 17 14 12 9 5 2 360 356 354 353 340 244 179 169 171 180 174 172 178 180 181 181 188 195 196 192 189 186 192 199 197 199 203 195 190 189 175 169 158 158 156 184
18 14 11 8 8 6 359 4 4 359 351 343 340 182 177 177 168 170 177 171 179 168 176 182 195 194 197 196 190 197 199 196 204 202 194 199 169 185 182 179 177 175 171
16 11 8 8 8 8 8 7 5 1 356 350 343 308 176 183 175 178 188 182 178 176 176 183 187 191 197 199 198 205 197 199 197 197 197 202 187 188 186 175 176 185 162
15 13 11 10 11 10 9 7 5 1 356 353 355 350 27 141 151 146 160 161 179 183 191 188 195 203 205 201 204 207 204 202 200 197 193 203 186 193 185 184 201 191 189
17 16 15 14 9 6 8 6 4 359 357 360 3 348 21 16 36 136 165 187 179 192 193 198 201 202 204 202 206 206 203 202 208 198 193 199 182 195 187 193 203 198 178
16 15 15 10 7 5 5 4 4 360 359 2 6 1 10 3 2 351 186 163 169 164 169 174 171 174 173 180 187 187 198 208 207 195 191 186 191 197 194 190 207 195 178
15 13 12 6 5 4 2 3 3 2 359 3 6 9 357 4 345 25 15 163 160 164 169 164 177 173 180 186 187 190 190 186 184 181 185 189 201 208 194 185 197 183 186
6 8 8 7 5 0 359 1 2 0 358 5 7 7 359 357 353 2 28 25 123 172 163 179 177 180 186 187 191 190 187 187 188 185 189 186 193 208 205 200 194 186 185
356 0 1 2 360 355 353 3 359 357 5 5 6 9 3 353 354 358 37 22 18 17 174 189 188 186 183 184 192 191 191 186 193 189 178 182 184 192 205 218 207 203 204
352 355 354 357 357 355 358 357 5 7 7 6 7 4 356 -0 351 353 32 22 4 45 50 52 116 116 171 185 190 186 180 186 189 188 182 182 188 195 195 195 202 211 198
347 352 348 351 354 359 355 0 10 10 11 7 4 0 360 359 349 6 17 11 17 39 52 53 54 66 43 89 181 172 179 188 190 179 172 181 192 190 191 176 199 206 230
346 355 351 354 2 357 350 3 11 12 9 359 357 1 360 1 2 359 9 1 23 36 48 56 47 44 52 28 74 111 127 124 124 117 143 185 177 176 184 197 210 212 210
350 358 358 1 360 354 354 2 4 13 354 351 358 5 4 3 359 359 16 3 17 34 40 46 50 37 39 28 49 71 79 102 119 122 111 86 88 152 191 187 178 200 147
358 358 356 359 357 358 358 1 2 353 350 356 2 4 5 2 359 10 15 14 16 23 34 32 38 29 30 30 42 56 58 57 91 100 149 121 141 163 178 155 164 158 133
356 354 355 352 355 359 3 359 351 349 348 357 9 3 355 4 5 9 14 21 14 25 22 27 27 24 16 21 25 36 37 40 64 58 67 82 101 104 110 127 143 123 111
356 352 359 356 355 354 355 353 351 348 350 354 5 10 3 7 2 5 8 15 15 20 20 19 24 16 9 14 12 15 3 20 34 26 37 63 94 115 124 100 97 93 109
354 354 358 355 350 346 349 351 351 348 354 350 353 16 10 1 357 2 5 13 13 22 14 13 9 3 5 355 4 356 344 352 36 73 46 41 56 92 92 83 113 123 123
351 354 354 352 345 339 341 349 348 346 347 351 349 4 6 2 360 356 354 10 15 16 19 18 23 12 3 4 3 345 331 337 339 92 131 131 162 154 133 137 136 134 157